Simultaneous Nadir Overpasses (SNOs) Predictions

Prediction of SNOs between FY3D and NOAA-19 Satellite Orbit:

Table of predicted SNOs for the next 14.0 days since TLE Epoch: 3/23/2024
Index Date (FY3D) Time (FY3D) Lat,Lon (FY3D) SZA (FY3D ) Date (NOAA-19) Time (NOAA-19) Lat,Lon (NOAA-19) SZA (NOAA-19 ) Distance(km) Time Diff (sec)
1 03/30/2024 07:07:18 75.92, 71.12 71.88 03/30/2024 07:06:07 75.89, 69.66 71.88 39.53 71
2 03/30/2024 07:58:06 -76.13,-122.31 107.92 03/30/2024 07:56:57 -76.10,-122.32 107.95 3.73 69
3 03/30/2024 08:48:52 76.11, 45.09 72.04 03/30/2024 08:47:59 76.13, 45.02 72.07 2.93 53
4 03/30/2024 09:39:37 -76.14,-147.70 107.94 03/30/2024 09:38:54 -76.16,-147.61 107.92 3.21 43
5 03/30/2024 10:30:24 76.16, 19.54 72.07 03/30/2024 10:29:57 76.14, 19.57 72.05 2.11 27
6 03/30/2024 11:21:08 -76.14,-173.09 107.97 03/30/2024 11:20:52 -76.17,-173.05 107.94 3.10 16
7 03/30/2024 12:11:55 76.16, -5.85 72.05 03/30/2024 12:11:55 76.15, -5.88 72.04 1.32 0
8 03/30/2024 13:02:40 -76.19, 161.36 107.94 03/30/2024 13:02:50 -76.18, 161.50 107.96 3.83 10
9 03/30/2024 13:53:26 76.16, -31.24 72.02 03/30/2024 13:53:53 76.16, -31.33 72.02 2.34 27
10 03/30/2024 14:44:11 -76.19, 135.97 107.97 03/30/2024 14:44:48 -76.19, 136.05 107.97 2.13 37
11 03/30/2024 15:34:57 76.17, -56.63 72.00 03/30/2024 15:35:51 76.17, -56.78 72.00 3.95 54
12 03/30/2024 16:25:42 -76.20, 110.58 107.99 03/30/2024 16:26:46 -76.20, 110.60 107.99 0.85 64
13 03/30/2024 17:16:34 76.44, -83.02 72.26 03/30/2024 17:17:44 76.40, -81.39 72.19 42.72 70



Historial Predications of SNOs between FY3D and NOAA-19
